Key West, FL NWLON current weather conditions

sailwx.info

Wind from 304 at 11 knots gusting 13

Last reported at 2020-Jul-11 20:42 UTC.
Time now 2020-Jul-11 21:29 UTC

Location: N 24°33' W 081°48'.
View on Google Maps.

See reports from other nearby stations

  
Tides and Currents Weather Stations Pressure Air Temp Water Temp Dewpoint Dewpoint Depression Visibility Wind Speed Wind Dir Waves Ship Positions
date/time (UTC)wind fromknots sea level pressurealtimeterstation pressurevisibilityair tempwater tempwave heightnotes
2020-Jul-11 20:42 304 11 gusting 13
2020-Jul-11 20:36 322 12 gusting 15
2020-Jul-11 20:30 321 11 gusting 13
2020-Jul-11 20:24 328 11 gusting 14
2020-Jul-11 20:18 331 11 gusting 13
2020-Jul-11 20:12 325 11 gusting 13
2020-Jul-11 20:06 316 11 gusting 12
2020-Jul-11 20:00 314 11 gusting 13
2020-Jul-11 19:54 313 10 gusting 13
2020-Jul-11 19:48 305 9 gusting 13
2020-Jul-11 19:42 309 12 gusting 13
2020-Jul-11 19:36 306 11 gusting 13
2020-Jul-11 19:30 305 11 gusting 13
2020-Jul-11 19:24 292 9 gusting 13
2020-Jul-11 19:18 310 12 gusting 14
2020-Jul-11 19:12 287 11 gusting 15
2020-Jul-11 19:06 300 10 gusting 14
2020-Jul-11 19:00 293 12 gusting 15
2020-Jul-11 18:54 307 13 gusting 16
2020-Jul-11 18:48 296 13 gusting 14
2020-Jul-11 18:42 305 13 gusting 15
2020-Jul-11 18:36 298 12 gusting 14
2020-Jul-11 18:30 306 12 gusting 14
2020-Jul-11 18:24 298 11 gusting 13
2020-Jul-11 18:18 300 11 gusting 15
2020-Jul-11 18:12 307 11 gusting 13
2020-Jul-11 18:06 297 12 gusting 14
2020-Jul-11 18:00 295 12 gusting 13
2020-Jul-11 17:54 292 12 gusting 13
2020-Jul-11 17:48 302 12 gusting 15
2020-Jul-11 17:42 294 11 gusting 13
2020-Jul-11 17:36 289 12 gusting 13
2020-Jul-11 17:30 289 13 gusting 14
2020-Jul-11 17:24 299 13 gusting 14
2020-Jul-11 17:18 294 9 gusting 14
2020-Jul-11 17:12 285 11 gusting 13
2020-Jul-11 17:06 293 11 gusting 13
2020-Jul-11 17:00 303 11 gusting 13
2020-Jul-11 16:54 297 11 gusting 13
2020-Jul-11 16:48 304 11 gusting 13
2020-Jul-11 16:42 293 10 gusting 13
2020-Jul-11 16:36 290 12 gusting 15
2020-Jul-11 16:30 288 11 gusting 14
2020-Jul-11 16:24 283 10 gusting 14
2020-Jul-11 16:18 287 10 gusting 13
2020-Jul-11 16:12 280 11 gusting 13
2020-Jul-11 16:06 278 12 gusting 13
2020-Jul-11 16:00 283 11 gusting 13
2020-Jul-11 15:54 274 12 gusting 13
2020-Jul-11 15:48 290 10 gusting 13
2020-Jul-11 15:42 284 10 gusting 13
2020-Jul-11 15:36 294 11 gusting 14
2020-Jul-11 15:30 291 12 gusting 14
2020-Jul-11 15:24 286 13 gusting 14
2020-Jul-11 15:18 287 10 gusting 16
2020-Jul-11 15:12 297 11 gusting 14
2020-Jul-11 15:06 291 11 gusting 14
2020-Jul-11 15:00 291 13 gusting 15
2020-Jul-11 14:54 288 11 gusting 13
2020-Jul-11 14:48 293 13 gusting 15
2020-Jul-11 14:42 294 11 gusting 14
2020-Jul-11 14:36 284 12 gusting 14
2020-Jul-11 14:30 298 12 gusting 13
2020-Jul-11 14:24 299 12 gusting 14
2020-Jul-11 14:18 288 12 gusting 14
2020-Jul-11 14:12 294 12 gusting 14
2020-Jul-11 14:06 292 12 gusting 16
2020-Jul-11 14:00 300 13 gusting 14
2020-Jul-11 13:54 287 13 gusting 14
2020-Jul-11 13:48 289 12 gusting 14
2020-Jul-11 13:42 291 11 gusting 14
2020-Jul-11 13:36 295 9 gusting 13
2020-Jul-11 13:30 297 12 gusting 14
2020-Jul-11 13:24 291 13 gusting 16
2020-Jul-11 13:18 296 11 gusting 14
2020-Jul-11 13:12 289 13 gusting 14
2020-Jul-11 13:06 285 9 gusting 14
2020-Jul-11 13:00 294 12 gusting 15
2020-Jul-11 12:54 299 13 gusting 14
2020-Jul-11 12:48 283 13 gusting 15
2020-Jul-11 12:42 286 12 gusting 16
2020-Jul-11 12:36 291 14 gusting 18
2020-Jul-11 12:30 292 13 gusting 15
2020-Jul-11 12:24 285 12 gusting 15
2020-Jul-11 12:18 301 13 gusting 16
2020-Jul-11 12:12 302 14 gusting 16
2020-Jul-11 12:06 298 13 gusting 16
2020-Jul-11 12:00 301 13 gusting 15
2020-Jul-11 11:54 292 13 gusting 16
2020-Jul-11 11:48 298 13 gusting 15
2020-Jul-11 11:42 286 12 gusting 14
2020-Jul-11 11:36 269 11 gusting 13
2020-Jul-11 11:30 290 12 gusting 13
2020-Jul-11 11:24 275 12 gusting 14
2020-Jul-11 11:18 290 12 gusting 14
2020-Jul-11 11:12 290 12 gusting 14
2020-Jul-11 11:06 288 11 gusting 14
2020-Jul-11 11:00 284 11 gusting 13
2020-Jul-11 10:54 290 11 gusting 13
2020-Jul-11 10:48 295 12 gusting 15
2020-Jul-11 10:42 295 11 gusting 13
2020-Jul-11 10:36 285 9 gusting 13
2020-Jul-11 10:30 292 11 gusting 13
2020-Jul-11 10:24 287 10 gusting 14
2020-Jul-11 10:18 287 10 gusting 13
2020-Jul-11 10:12 290 10 gusting 12
2020-Jul-11 10:06 298 9 gusting 15
2020-Jul-11 10:00 296 11 gusting 14
2020-Jul-11 09:54 294 11 gusting 13
2020-Jul-11 09:48 291 9 gusting 13
2020-Jul-11 09:42 297 11 gusting 13
2020-Jul-11 09:36 300 11 gusting 14
2020-Jul-11 09:30 301 12 gusting 13
2020-Jul-11 09:24 289 10 gusting 12
2020-Jul-11 09:18 294 9 gusting 13
2020-Jul-11 09:12 287 10 gusting 13
2020-Jul-11 09:06 305 9 gusting 12
2020-Jul-11 09:00 313 11 gusting 13
2020-Jul-11 08:54 279 9 gusting 12
2020-Jul-11 08:48 302 9 gusting 11
2020-Jul-11 08:42 287 10 gusting 12
2020-Jul-11 08:36 288 11 gusting 13
2020-Jul-11 08:30 297 8 gusting 13
2020-Jul-11 08:24 283 11 gusting 13
2020-Jul-11 08:18 295 11 gusting 13
2020-Jul-11 08:12 290 10 gusting 13
2020-Jul-11 08:06 296 11 gusting 13
2020-Jul-11 08:00 282 10 gusting 13
2020-Jul-11 07:54 290 11 gusting 13
2020-Jul-11 07:48 289 11 gusting 13
2020-Jul-11 07:42 292 11 gusting 13
2020-Jul-11 07:36 295 10 gusting 13
2020-Jul-11 07:30 293 11 gusting 13
2020-Jul-11 07:24 302 11 gusting 13
2020-Jul-11 07:18 293 12 gusting 13
2020-Jul-11 07:12 285 8 gusting 13
2020-Jul-11 07:06 290 9 gusting 13
2020-Jul-11 07:00 289 12 gusting 14
2020-Jul-11 06:54 274 8 gusting 12
2020-Jul-11 06:48 282 8 gusting 10
2020-Jul-11 06:42 270 9 gusting 12
2020-Jul-11 06:36 283 9 gusting 11
2020-Jul-11 06:30 270 8 gusting 12
2020-Jul-11 06:24 272 9 gusting 12
2020-Jul-11 06:18 275 9 gusting 13
2020-Jul-11 06:12 288 12 gusting 13
2020-Jul-11 06:06 276 12 gusting 13
2020-Jul-11 06:00 259 7 gusting 11
2020-Jul-11 05:54 260 7 gusting 10
2020-Jul-11 05:48 243 7 gusting 10
2020-Jul-11 05:42 251 7 gusting 10
2020-Jul-11 05:36 273 8 gusting 10
2020-Jul-11 05:30 274 9 gusting 12
2020-Jul-11 05:24 254 7 gusting 10
2020-Jul-11 05:18 264 7 gusting 10
2020-Jul-11 05:12 247 7 gusting 10
2020-Jul-11 05:06 250 6 gusting 10
2020-Jul-11 05:00 240 6 gusting 10
2020-Jul-11 04:54 263 6 gusting 7
2020-Jul-11 04:48 236 6 gusting 8
2020-Jul-11 04:42 247 6 gusting 9
2020-Jul-11 04:36 239 5 gusting 7
2020-Jul-11 04:30 242 5 gusting 6
2020-Jul-11 04:24 253 6 gusting 8
2020-Jul-11 04:18 240 6 gusting 8
2020-Jul-11 04:12 264 6 gusting 7
2020-Jul-11 04:06 258 6 gusting 7
2020-Jul-11 04:00 249 5 gusting 6
2020-Jul-11 03:54 255 4 gusting 7
2020-Jul-11 03:48 285 5 gusting 7
2020-Jul-11 03:42 254 5 gusting 7
2020-Jul-11 03:36 284 5 gusting 8
2020-Jul-11 03:30 281 5 gusting 8
2020-Jul-11 03:24 286 4 gusting 7
2020-Jul-11 03:18 289 6 gusting 8
2020-Jul-11 03:12 297 5 gusting 6
2020-Jul-11 03:06 305 6 gusting 8
2020-Jul-11 03:00 304 6 gusting 8
2020-Jul-11 02:54 318 7 gusting 9
2020-Jul-11 02:48 307 6 gusting 9
2020-Jul-11 02:42 295 6 gusting 7
2020-Jul-11 02:36 300 5 gusting 8
2020-Jul-11 02:30 278 6 gusting 9
2020-Jul-11 02:24 283 5 gusting 9
2020-Jul-11 02:18 292 9 gusting 11
2020-Jul-11 02:12 313 6 gusting 9
2020-Jul-11 02:06 314 7 gusting 8
2020-Jul-11 02:00 320 4 gusting 8
2020-Jul-11 01:54 295 6 gusting 9
2020-Jul-11 01:48 322 6 gusting 9
2020-Jul-11 01:42 301 6 gusting 9
2020-Jul-11 01:36 321 7 gusting 12
2020-Jul-11 01:30 320 9 gusting 11
2020-Jul-11 01:24 327 9 gusting 11
2020-Jul-11 01:18 329 8 gusting 11
2020-Jul-11 01:12 320 8 gusting 11
2020-Jul-11 01:06 314 7 gusting 8
2020-Jul-11 01:00 354 1 gusting 4
2020-Jul-11 00:54 064 1 gusting 2
2020-Jul-11 00:48 065 2 gusting 4
2020-Jul-11 00:42 069 2 gusting 6
2020-Jul-11 00:36 090 4 gusting 6
2020-Jul-11 00:30 059 5 gusting 6
2020-Jul-11 00:24 089 4 gusting 7
2020-Jul-11 00:18 037 6 gusting 11
2020-Jul-11 00:12 004 6 gusting 9
2020-Jul-11 00:06 328 6 gusting 9
2020-Jul-11 00:00 281 4 gusting 5
2020-Jul-10 23:42 332 2 gusting 3
2020-Jul-10 23:36 308 1 gusting 2
2020-Jul-10 23:30 335 0 gusting 4
2020-Jul-10 23:24 007 2 gusting 5
2020-Jul-10 23:18 348 3 gusting 4
2020-Jul-10 23:12 003 2 gusting 6
2020-Jul-10 23:06 003 4 gusting 6
2020-Jul-10 23:00 006 6 gusting 8
2020-Jul-10 22:54 357 5 gusting 7
2020-Jul-10 22:48 345 6 gusting 7
2020-Jul-10 22:42 337 6 gusting 8
2020-Jul-10 22:36 341 5 gusting 8
2020-Jul-10 22:30 347 6 gusting 7
2020-Jul-10 22:24 358 5 gusting 9
2020-Jul-10 22:18 346 7 gusting 8
2020-Jul-10 22:12 329 6 gusting 8
2020-Jul-10 22:06 326 6 gusting 10
2020-Jul-10 22:00 329 8 gusting 9
2020-Jul-10 21:54 331 8 gusting 9
2020-Jul-10 21:48 337 9 gusting 10
2020-Jul-10 21:42 338 9 gusting 12
2020-Jul-10 21:36 321 8 gusting 11
2020-Jul-10 21:30 333 9 gusting 13
2020-Jul-10 21:24 315 8 gusting 12
2020-Jul-10 21:18 317 8 gusting 12
2020-Jul-10 21:12 306 8 gusting 11
2020-Jul-10 21:06 310 7 gusting 10
2020-Jul-10 21:00 323 8 gusting 12
2020-Jul-10 20:54 324 11 gusting 12
2020-Jul-10 20:48 316 8 gusting 12
2020-Jul-10 20:42 317 9 gusting 12
2020-Jul-10 20:36 316 9 gusting 13
2020-Jul-10 20:30 312 12 gusting 14
2020-Jul-10 20:24 310 10 gusting 13
2020-Jul-10 20:18 313 10 gusting 13
2020-Jul-10 20:12 301 8 gusting 10
2020-Jul-10 20:06 307 8 gusting 12
2020-Jul-10 20:00 331 11 gusting 12
2020-Jul-10 19:54 317 8 gusting 10
2020-Jul-10 19:48 323 7 gusting 10
2020-Jul-10 19:42 319 8 gusting 10
2020-Jul-10 19:36 324 8 gusting 9
2020-Jul-10 19:30 321 9 gusting 11
2020-Jul-10 19:24 311 7 gusting 11
2020-Jul-10 19:18 328 8 gusting 10
2020-Jul-10 19:12 325 8 gusting 10
2020-Jul-10 19:06 324 6 gusting 9
2020-Jul-10 19:00 327 8 gusting 9
2020-Jul-10 18:54 315 7 gusting 10
2020-Jul-10 18:48 302 7 gusting 9
2020-Jul-10 18:42 325 8 gusting 10
2020-Jul-10 18:36 306 7 gusting 9
2020-Jul-10 18:30 306 6 gusting 10
2020-Jul-10 18:24 290 7 gusting 9
2020-Jul-10 18:18 309 6 gusting 8
2020-Jul-10 18:12 293 8 gusting 9
2020-Jul-10 18:06 317 6 gusting 8
2020-Jul-10 18:00 307 6 gusting 7
2020-Jul-10 17:54 291 6 gusting 8
2020-Jul-10 17:48 310 7 gusting 9
2020-Jul-10 17:42 315 6 gusting 9
2020-Jul-10 17:36 296 6 gusting 8
2020-Jul-10 17:30 305 6 gusting 7
2020-Jul-10 17:24 337 6 gusting 9
2020-Jul-10 17:18 330 8 gusting 11
2020-Jul-10 17:12 321 6 gusting 8
2020-Jul-10 17:06 336 7 gusting 10
2020-Jul-10 17:00 319 8 gusting 9
2020-Jul-10 16:54 322 7 gusting 10
2020-Jul-10 16:48 332 8 gusting 10
2020-Jul-10 16:42 327 7 gusting 10
2020-Jul-10 16:36 332 5 gusting 8
2020-Jul-10 16:30 338 7 gusting 9
2020-Jul-10 16:24 325 7 gusting 9
2020-Jul-10 16:18 331 7 gusting 9
2020-Jul-10 16:12 331 6 gusting 10
2020-Jul-10 16:06 325 6 gusting 9
2020-Jul-10 16:00 324 7 gusting 9
2020-Jul-10 15:54 327 7 gusting 10
2020-Jul-10 15:48 329 8 gusting 10
2020-Jul-10 15:42 329 7 gusting 10
2020-Jul-10 15:36 328 8 gusting 9
2020-Jul-10 15:30 329 8 gusting 10
2020-Jul-10 15:24 330 6 gusting 9
2020-Jul-10 15:18 310 6 gusting 8
2020-Jul-10 15:12 327 6 gusting 7
2020-Jul-10 15:06 317 6 gusting 9
2020-Jul-10 15:00 313 6 gusting 9
2020-Jul-10 14:54 313 6 gusting 7
2020-Jul-10 14:48 297 6 gusting 7
2020-Jul-10 14:42 312 6 gusting 7
2020-Jul-10 14:36 321 5 gusting 6
2020-Jul-10 14:30 315 5 gusting 7
2020-Jul-10 14:24 304 6 gusting 7
2020-Jul-10 14:18 313 6 gusting 9
2020-Jul-10 14:12 333 6 gusting 8
2020-Jul-10 14:06 323 6 gusting 8
2020-Jul-10 14:00 340 7 gusting 9
2020-Jul-10 13:54 315 6 gusting 9
2020-Jul-10 13:48 331 6 gusting 8
2020-Jul-10 13:42 334 5 gusting 7
2020-Jul-10 13:36 333 5 gusting 7
2020-Jul-10 13:30 327 6 gusting 7
2020-Jul-10 13:24 313 5 gusting 6
2020-Jul-10 13:18 325 5 gusting 6
2020-Jul-10 13:12 330 4 gusting 6
2020-Jul-10 13:06 346 4 gusting 6
2020-Jul-10 13:00 331 4 gusting 6
2020-Jul-10 12:54 342 5 gusting 6
2020-Jul-10 12:48 327 4 gusting 6
2020-Jul-10 12:42 312 5 gusting 6
2020-Jul-10 12:36 326 4 gusting 6
2020-Jul-10 12:30 328 5 gusting 6
2020-Jul-10 12:24 299 4 gusting 6
2020-Jul-10 12:18 304 5 gusting 7
2020-Jul-10 12:12 322 5 gusting 6
2020-Jul-10 12:06 318 4 gusting 6
2020-Jul-10 12:00 307 4 gusting 6
2020-Jul-10 11:54 327 5 gusting 6
2020-Jul-10 11:48 325 3 gusting 6
2020-Jul-10 11:42 330 5 gusting 6
2020-Jul-10 11:36 307 4 gusting 5
2020-Jul-10 11:30 316 3 gusting 5
2020-Jul-10 11:24 322 3 gusting 5
2020-Jul-10 11:18 337 4 gusting 5
2020-Jul-10 11:12 299 5 gusting 5
2020-Jul-10 11:06 333 4 gusting 6
2020-Jul-10 11:00 336 3 gusting 6
2020-Jul-10 10:54 319 4 gusting 6
2020-Jul-10 10:48 312 5 gusting 6
2020-Jul-10 10:42 327 5 gusting 6
2020-Jul-10 10:36 330 5 gusting 7
2020-Jul-10 10:30 327 6 gusting 7
2020-Jul-10 10:24 313 6 gusting 7
2020-Jul-10 10:18 314 5 gusting 6
2020-Jul-10 10:12 313 6 gusting 8
2020-Jul-10 10:06 315 4 gusting 6
2020-Jul-10 10:00 311 5 gusting 7
2020-Jul-10 09:54 318 6 gusting 7
2020-Jul-10 09:48 319 5 gusting 7
2020-Jul-10 09:42 312 5 gusting 6
2020-Jul-10 09:36 297 5 gusting 6
2020-Jul-10 09:30 320 4 gusting 6
2020-Jul-10 09:24 284 4 gusting 5
2020-Jul-10 09:18 287 2 gusting 6
2020-Jul-10 09:12 266 4 gusting 6
2020-Jul-10 09:06 287 4 gusting 6
2020-Jul-10 09:00 299 5 gusting 6
2020-Jul-10 08:54 289 6 gusting 6
2020-Jul-10 08:48 295 5 gusting 7
2020-Jul-10 08:42 279 5 gusting 6
2020-Jul-10 08:36 252 3 gusting 6
2020-Jul-10 08:30 274 3 gusting 5
2020-Jul-10 08:24 265 4 gusting 6
2020-Jul-10 08:18 262 3 gusting 5
2020-Jul-10 08:12 269 4 gusting 6
2020-Jul-10 08:06 280 1 gusting 3
2020-Jul-10 08:00 300 2 gusting 4
2020-Jul-10 07:54 266 2 gusting 4
2020-Jul-10 07:48 253 3 gusting 4
2020-Jul-10 07:42 277 3 gusting 4
2020-Jul-10 07:36 226 3 gusting 4
2020-Jul-10 07:30 241 3 gusting 4
2020-Jul-10 07:24 224 2 gusting 4
2020-Jul-10 07:18 231 1 gusting 4
2020-Jul-10 07:12 235 3 gusting 5
2020-Jul-10 07:06 222 2 gusting 5
2020-Jul-10 07:00 231 2 gusting 3
2020-Jul-10 06:54 247 2 gusting 3
2020-Jul-10 06:48 226 1 gusting 1
2020-Jul-10 06:42 225 0 gusting 1
2020-Jul-10 06:36 216 1 gusting 3
2020-Jul-10 06:30 216 1 gusting 3
2020-Jul-10 06:24 220 2 gusting 3
2020-Jul-10 06:18 249 2 gusting 4
2020-Jul-10 06:12 228 2 gusting 3
2020-Jul-10 06:06 257 2 gusting 4
2020-Jul-10 06:00 255 3 gusting 4
2020-Jul-10 05:54 218 1 gusting 4
2020-Jul-10 05:48 242 2 gusting 2
2020-Jul-10 05:42 231 1 gusting 3
2020-Jul-10 05:36 248 1 gusting 2
2020-Jul-10 05:30 181 1 gusting 2
2020-Jul-10 05:24 140 0 gusting 1
2020-Jul-10 05:18 186 1 gusting 1
2020-Jul-10 05:12 169 0 gusting 0
2020-Jul-10 05:06 136
2020-Jul-10 05:00 170
2020-Jul-10 04:54 141
2020-Jul-10 04:48 114 0 gusting 0
2020-Jul-10 04:42 120
2020-Jul-10 04:36 109 0 gusting 1
2020-Jul-10 04:30 101 1 gusting 1
2020-Jul-10 04:24 103 0 gusting 1
2020-Jul-10 04:18 097 1 gusting 1
2020-Jul-10 04:12 085 1 gusting 1
2020-Jul-10 04:06 097
2020-Jul-10 04:00 108
2020-Jul-10 03:54 132 0 gusting 0
2020-Jul-10 03:48 279
2020-Jul-10 03:42 213 0 gusting 1
2020-Jul-10 03:36 235 1 gusting 1
2020-Jul-10 03:30 193 1 gusting 2
2020-Jul-10 03:24 218 1 gusting 2
2020-Jul-10 03:18 195 0 gusting 1
2020-Jul-10 03:12 195 1 gusting 2
2020-Jul-10 03:06 185 1 gusting 1
2020-Jul-10 03:00 195 0 gusting 1
2020-Jul-10 02:54 181 0 gusting 0
2020-Jul-10 02:48 207 0 gusting 0
2020-Jul-10 02:42 204 0 gusting 1
2020-Jul-10 02:36 198 1 gusting 1
2020-Jul-10 02:30 216 0 gusting 0
2020-Jul-10 02:24 096 0 gusting 0
2020-Jul-10 02:18 064 0 gusting 1
2020-Jul-10 02:12 088
2020-Jul-10 02:06 081 0 gusting 0
2020-Jul-10 02:00 021 1 gusting 1
2020-Jul-10 01:54 153
2020-Jul-10 01:48 199 0 gusting 0
2020-Jul-10 01:42 122 0 gusting 1
2020-Jul-10 01:36 190 1 gusting 1
2020-Jul-10 01:30 135 0 gusting 1
2020-Jul-10 01:24 145
2020-Jul-10 01:18 324
2020-Jul-10 01:12 038
2020-Jul-10 01:06 358 1 gusting 5
2020-Jul-10 01:00 328 2 gusting 4
2020-Jul-10 00:54 342 3 gusting 4
2020-Jul-10 00:42 349 4 gusting 5
2020-Jul-10 00:36 342 1 gusting 4
2020-Jul-10 00:30 002 4 gusting 6
2020-Jul-10 00:24 340 4 gusting 5
2020-Jul-10 00:18 355 2 gusting 5
2020-Jul-10 00:12 017 2 gusting 5
2020-Jul-10 00:06 348 3 gusting 5
2020-Jul-10 00:00 332 1 gusting 3
2020-Jul-09 23:42 344 5 gusting 6
2020-Jul-09 23:36 349 5 gusting 7
2020-Jul-09 23:30 350 6 gusting 8
2020-Jul-09 23:24 355 6 gusting 9
2020-Jul-09 23:18 350 7 gusting 9
2020-Jul-09 23:12 345 6 gusting 8
2020-Jul-09 23:06 346 5 gusting 7
2020-Jul-09 23:00 352 6 gusting 7
2020-Jul-09 22:54 338 5 gusting 6
2020-Jul-09 22:48 339 3 gusting 7
2020-Jul-09 22:42 355 6 gusting 8
2020-Jul-09 22:36 356 6 gusting 8
2020-Jul-09 22:30 011 4 gusting 6
2020-Jul-09 22:24 332 3 gusting 6
2020-Jul-09 22:18 003 5 gusting 7
2020-Jul-09 22:12 347 3 gusting 6
2020-Jul-09 22:06 333 2 gusting 6
2020-Jul-09 22:00 342 5 gusting 6
2020-Jul-09 21:54 350 5 gusting 6
2020-Jul-09 21:48 344 5 gusting 6
2020-Jul-09 21:42 356 5 gusting 6
2020-Jul-09 21:36 337 2 gusting 6
2020-Jul-09 21:30 344 6 gusting 9
2020-Jul-09 21:24 289 5 gusting 7
2020-Jul-09 21:18 284 0 gusting 2
2020-Jul-09 21:12 354 2 gusting 5
2020-Jul-09 21:06 355 4 gusting 5
2020-Jul-09 21:00 359 2 gusting 4